MET'MAP v2.0
soon released !

Expected late october,
this new version will be
more efficient, smarter,
and hosted on a brand new
server x3 powerfull...
...and still free !


Not compatible ?
Try the mobile version !

LOG IN : | Subscribe | Disclaimer | Who is Orbifly ? |
ICAO code :
Legend : VFR Marginal VFR IFR Intensive IFR Very Intensive IFR
Visi :
Ceiling :
>= 8 km
>= 3000ft
5 to 8 km
1000 to 3000 ft
1500m to 5 km
500 to 1000 ft
800 to 1500m
200 to 500 ft
< 800m
< 200 ft

METAR - LEVC Valencia Manises - 28 Nov 2020 11:48 UTC
Data Sources :     NOAA   


- Airport Elevation : 240 ft
- IATA code : VLC
- No reported NOTAMs.


LEVC - Valencia Manises

NO METAR
TAF TAF LEVC
Valid from the 28 at 06:00 until the 29 at 06:00 UTC


280500Z 2806/2906 31010KT 9999 BKN025 TX15/2813Z TN11/2806Z

Source NOAA


MET'MAP, your aeronautical weather chart ! - Copyright ORBIFLY December 2007

Programming & Development : Alexandra Zaïnal
Co-Developer : Marc-Olivier Méhu
Technical & hardware support : Manuel Goepfert
Concept & Financing : Baudouin d'Aumeries